W5LND-10 Weather Reports


time (UTC)temp
C
wind
direction
speed
KPH
gust
KPH
rain 1hr
cm
rain 24hr
cm
rain mn
cm
humidity
%
barometer
mb
20260507130104 10 151 6.4 17.7 0.00 0.00 0.00 82 1017.7
20260507125604 10 165 6.4 16.1 0.00 0.00 0.00 82 1017.7
20260507125104 10 128 6.4 17.7 0.00 0.00 0.00 82 1017.5
20260507124604 10 133 6.4 14.5 0.00 0.00 0.00 83 1017.7
20260507124104 10 99 4.8 12.9 0.00 0.00 0.00 82 1017.6
20260507123604 10 91 3.2 11.3 0.00 0.00 0.00 82 1017.6
20260507123104 10 36 3.2 6.4 0.00 0.00 0.00 82 1017.5
20260507122605 10 86 4.8 12.9 0.00 0.00 0.00 82 1017.4
20260507122105 10 111 4.8 8.0 0.00 0.00 0.00 82 1017.5
20260507121605 10 138 4.8 12.9 0.00 0.00 0.00 82 1017.4
20260507121105 10 126 4.8 12.9 0.00 0.00 0.00 81 1017.5
20260507120605 10 150 3.2 8.0 0.00 0.00 0.00 81 1017.3
20260507120105 10 33 3.2 11.3 0.00 0.00 0.00 81 1017.4
20260507115605 10 132 3.2 11.3 0.00 0.00 0.00 81 1017.3
20260507115105 10 130 3.2 8.0 0.00 0.00 0.00 81 1017.4
20260507114605 10 93 3.2 8.0 0.00 0.00 0.00 81 1017.4
20260507114105 10 111 3.2 9.7 0.00 0.00 0.00 80 1017.4
20260507113605 10 132 1.6 6.4 0.00 0.00 0.00 80 1017.4
20260507113105 10 144 3.2 8.0 0.00 0.00 0.00 80 1017.5
20260507112605 10 117 4.8 12.9 0.00 0.00 0.00 80 1017.5
20260507112105 10 122 4.8 12.9 0.00 0.00 0.00 79 1017.5
20260507111605 10 121 3.2 12.9 0.00 0.00 0.00 79 1017.5
20260507111105 10 96 3.2 8.0 0.00 0.00 0.00 79 1017.5
20260507110605 10 137 3.2 12.9 0.00 0.00 0.00 79 1017.4
20260507110105 10 128 1.6 6.4 0.00 0.00 0.00 79 1017.5
20260507105605 10 122 4.8 8.0 0.00 0.00 0.00 78 1017.5
20260507105105 10 121 6.4 12.9 0.00 0.00 0.00 78 1017.6
20260507104605 10 135 4.8 14.5 0.00 0.00 0.00 78 1017.5
20260507104105 11 128 4.8 11.3 0.00 0.00 0.00 78 1017.2
20260507103605 11 91 4.8 14.5 0.00 0.00 0.00 78 1017.4
20260507103105 11 113 4.8 14.5 0.00 0.00 0.00 77 1017.4
20260507102605 11 92 4.8 14.5 0.00 0.00 0.00 77 1017.3
20260507102105 11 132 4.8 12.9 0.00 0.00 0.00 76 1017.4
20260507101605 11 140 3.2 11.3 0.00 0.00 0.00 76 1017.4
20260507101105 11 122 4.8 9.7 0.00 0.00 0.00 76 1017.3
20260507100605 11 130 4.8 11.3 0.00 0.00 0.00 75 1017.4
20260507100105 11 127 3.2 11.3 0.00 0.00 0.00 75 1017.3
20260507095605 11 127 3.2 8.0 0.00 0.00 0.00 75 1017.3
20260507095105 11 112 3.2 11.3 0.00 0.00 0.00 74 1017.3
20260507094605 11 123 3.2 11.3 0.00 0.00 0.00 74 1017.3
20260507094105 11 86 3.2 8.0 0.00 0.00 0.00 74 1017.3
20260507093605 11 131 1.6 6.4 0.00 0.00 0.00 74 1017.1
20260507093105 11 131 3.2 6.4 0.00 0.00 0.00 74 1017.2
20260507092605 11 129 4.8 11.3 0.00 0.00 0.00 74 1017.0
20260507092105 11 127 4.8 14.5 0.00 0.00 0.00 74 1016.7
20260507091605 11 136 6.4 14.5 0.00 0.00 0.00 73 1016.7
20260507091105 12 119 6.4 19.3 0.00 0.00 0.00 73 1016.6
20260507090605 12 141 4.8 14.5 0.00 0.00 0.00 72 1016.8
20260507090105 12 138 6.4 12.9 0.00 0.00 0.00 72 1016.8
20260507085605 12 128 8.0 16.1 0.00 0.00 0.00 72 1016.5
20260507085105 12 105 8.0 16.1 0.00 0.00 0.00 71 1016.4
20260507084605 12 126 6.4 17.7 0.00 0.00 0.00 71 1016.2
20260507084105 12 128 6.4 17.7 0.00 0.00 0.00 71 1016.1
20260507083605 12 119 9.7 17.7 0.00 0.00 0.00 70 1016.3
20260507083105 12 126 9.7 17.7 0.00 0.00 0.00 70 1016.2
20260507082605 12 132 8.0 17.7 0.00 0.00 0.00 70 1015.9
20260507082105 12 121 4.8 14.5 0.00 0.00 0.00 69 1015.9
20260507081605 12 136 4.8 16.1 0.00 0.00 0.00 69 1016.0
20260507081105 12 126 4.8 19.3 0.00 0.00 0.00 68 1016.1
20260507080605 12 124 4.8 12.9 0.00 0.00 0.00 68 1016.2
20260507080105 12 107 3.2 12.9 0.00 0.00 0.00 68 1016.2
20260507075605 12 130 3.2 11.3 0.00 0.00 0.00 67 1016.0
20260507075105 13 120 3.2 8.0 0.00 0.00 0.00 67 1015.9
20260507074605 13 121 3.2 9.7 0.00 0.00 0.00 66 1015.9
20260507074105 13 121 4.8 16.1 0.00 0.00 0.00 66 1015.9
20260507073605 13 61 6.4 17.7 0.00 0.00 0.00 66 1015.7
20260507073105 13 103 6.4 16.1 0.00 0.00 0.00 66 1015.8
20260507072605 13 115 8.0 17.7 0.00 0.00 0.00 65 1015.7
20260507072105 13 111 11.3 17.7 0.00 0.00 0.00 65 1015.5
20260507071605 13 133 9.7 19.3 0.00 0.00 0.00 65 1015.4
20260507071105 13 128 8.0 16.1 0.00 0.00 0.00 65 1015.5
20260507070605 13 123 9.7 14.5 0.00 0.00 0.00 65 1015.3
20260507070105 13 109 8.0 16.1 0.00 0.00 0.00 65 1015.2
20260507065605 13 134 4.8 16.1 0.00 0.00 0.00 65 1015.2
20260507065105 13 130 4.8 11.3 0.00 0.00 0.00 65 1015.1
20260507064605 13 134 4.8 12.9 0.00 0.00 0.00 64 1015.0
20260507064105 13 110 6.4 12.9 0.00 0.00 0.00 64 1014.9
20260507063605 13 126 6.4 12.9 0.00 0.00 0.00 64 1014.8
20260507063105 13 130 6.4 14.5 0.00 0.00 0.00 63 1014.7
20260507062605 14 124 6.4 16.1 0.00 0.00 0.00 63 1014.8
20260507062105 14 125 6.4 12.9 0.00 0.00 0.00 63 1014.8
20260507061605 14 128 6.4 12.9 0.00 0.00 0.00 62 1014.8
20260507061105 14 121 4.8 12.9 0.00 0.00 0.00 62 1014.7
20260507060605 14 126 3.2 14.5 0.00 0.00 0.00 62 1014.6
20260507060105 14 105 3.2 11.3 0.00 0.00 0.00 61 1014.6
20260507055605 15 131 1.6 8.0 0.00 0.00 0.00 61 1014.5
20260507055105 15 129 0.0 3.2 0.00 0.00 0.00 60 1014.4
20260507054605 15 136 1.6 4.8 0.00 0.00 0.00 60 1014.3
20260507054105 15 138 1.6 3.2 0.00 0.00 0.00 60 1014.1
20260507053605 15 137 3.2 6.4 0.00 0.00 0.00 59 1013.9
20260507053105 15 134 4.8 12.9 0.00 0.00 0.00 59 1013.9
20260507052605 15 134 4.8 11.3 0.00 0.00 0.00 59 1013.9
20260507052105 15 137 4.8 12.9 0.00 0.00 0.00 58 1013.8
20260507051605 15 105 6.4 12.9 0.00 0.00 0.00 58 1013.7
20260507051105 16 123 8.0 16.1 0.00 0.00 0.00 57 1013.7
20260507050605 16 133 11.3 16.1 0.00 0.00 0.00 57 1013.5
20260507050105 16 139 11.3 19.3 0.00 0.00 0.00 57 1013.5
20260507045605 16 126 11.3 19.3 0.00 0.00 0.00 57 1013.4
20260507045105 16 148 12.9 22.5 0.00 0.00 0.00 56 1013.5
20260507044605 16 146 9.7 24.1 0.00 0.00 0.00 56 1013.2
20260507044105 16 138 8.0 16.1 0.00 0.00 0.00 55 1013.2
20260507043605 16 159 11.3 17.7 0.00 0.00 0.00 55 1013.1
20260507043105 16 148 11.3 22.5 0.00 0.00 0.00 55 1013.0
20260507042605 16 128 9.7 22.5 0.00 0.00 0.00 54 1013.0
20260507042106 16 132 11.3 17.7 0.00 0.00 0.00 54 1012.9
20260507041605 16 144 11.3 20.9 0.00 0.00 0.00 54 1012.8
20260507041105 16 124 12.9 20.9 0.00 0.00 0.00 53 1012.9
20260507040605 17 134 14.5 24.1 0.00 0.00 0.00 53 1012.8
20260507040106 17 132 14.5 22.5 0.00 0.00 0.00 53 1012.7
20260507035606 17 114 14.5 25.7 0.00 0.00 0.00 52 1012.7
20260507035106 17 160 14.5 25.7 0.00 0.00 0.00 52 1012.5
20260507034606 17 137 14.5 22.5 0.00 0.00 0.00 52 1012.4
20260507034106 17 155 14.5 29.0 0.00 0.00 0.00 51 1012.3
20260507033606 17 134 16.1 24.1 0.00 0.00 0.00 51 1012.2
20260507033106 17 138 16.1 27.4 0.00 0.00 0.00 51 1012.1
20260507032606 17 135 14.5 20.9 0.00 0.00 0.00 50 1011.9
20260507032106 17 132 14.5 24.1 0.00 0.00 0.00 50 1011.8
20260507031606 17 134 14.5 22.5 0.00 0.00 0.00 50 1011.7
20260507031106 18 146 14.5 25.7 0.00 0.00 0.00 49 1011.5
20260507030606 18 117 14.5 24.1 0.00 0.00 0.00 48 1011.4
20260507030106 18 119 16.1 24.1 0.00 0.00 0.00 48 1011.3
20260507025606 18 125 16.1 25.7 0.00 0.00 0.00 48 1011.4
20260507025106 18 143 14.5 25.7 0.00 0.00 0.00 47 1011.3
20260507024606 18 114 12.9 22.5 0.00 0.00 0.00 47 1011.1
20260507024106 18 123 12.9 24.1 0.00 0.00 0.00 46 1011.1
20260507023606 18 132 12.9 19.3 0.00 0.00 0.00 46 1011.0
20260507023106 18 148 12.9 19.3 0.00 0.00 0.00 46 1011.0
20260507022606 19 119 12.9 19.3 0.00 0.00 0.00 46 1011.0
20260507022106 19 120 11.3 19.3 0.00 0.00 0.00 45 1010.9
20260507021606 19 155 11.3 17.7 0.00 0.00 0.00 45 1010.8
20260507021106 19 136 11.3 17.7 0.00 0.00 0.00 45 1010.8
20260507020606 20 137 11.3 20.9 0.00 0.00 0.00 45 1010.5
20260507020106 20 139 11.3 19.3 0.00 0.00 0.00 44 1010.6
20260507015606 20 139 11.3 17.7 0.00 0.00 0.00 44 1010.5
20260507015106 20 130 11.3 19.3 0.00 0.00 0.00 44 1010.3
20260507014606 20 109 11.3 20.9 0.00 0.00 0.00 43 1010.3
20260507014106 20 144 11.3 17.7 0.00 0.00 0.00 43 1010.2
20260507013606 20 133 12.9 19.3 0.00 0.00 0.00 43 1010.2
20260507013106 21 139 14.5 25.7 0.00 0.00 0.00 42 1010.1
20260507012606 21 144 14.5 22.5 0.00 0.00 0.00 42 1010.0
20260507012106 21 163 14.5 27.4 0.00 0.00 0.00 42 1009.7
20260507011606 21 137 14.5 24.1 0.00 0.00 0.00 42 1009.7
20260507011106 21 140 14.5 20.9 0.00 0.00 0.00 41 1009.6
20260507010606 21 141 12.9 24.1 0.00 0.00 0.00 41 1009.5
20260507010106 21 171 12.9 24.1 0.00 0.00 0.00 41 1009.3
20260507005606 21 159 14.5 25.7 0.00 0.00 0.00 41 1009.4
20260507005106 22 172 12.9 24.1 0.00 0.00 0.00 41 1009.4
20260507004606 22 200 12.9 27.4 0.00 0.00 0.00 41 1009.3
20260507004106 22 154 12.9 25.7 0.00 0.00 0.00 40 1009.4
20260507003606 22 153 11.3 22.5 0.00 0.00 0.00 41 1009.4
20260507003106 22 150 12.9 24.1 0.00 0.00 0.00 40 1009.4
20260507002606 22 121 12.9 24.1 0.00 0.00 0.00 40 1009.4
20260507002106 22 142 11.3 24.1 0.00 0.00 0.00 40 1009.4
20260507001606 23 189 9.7 27.4 0.00 0.00 0.00 40 1009.4
20260507001106 23 144 11.3 19.3 0.00 0.00 0.00 40 1009.3
20260507000606 23 154 12.9 24.1 0.00 0.00 0.00 40 1009.3
20260507000106 23 144 11.3 22.5 0.00 0.00 0.00 39 1009.3
20260506235606 23 146 11.3 19.3 0.00 0.00 0.00 39 1009.3
20260506235106 23 125 11.3 24.1 0.00 0.00 0.00 39 1009.3
20260506234606 23 142 9.7 20.9 0.00 0.00 0.00 39 1009.4
20260506234106 23 145 8.0 14.5 0.00 0.00 0.00 39 1009.4
20260506233606 23 161 9.7 19.3 0.00 0.00 0.00 39 1009.4
20260506233106 23 132 11.3 19.3 0.00 0.00 0.00 39 1009.3
20260506232606 23 138 9.7 20.9 0.00 0.00 0.00 38 1009.3
20260506232106 23 142 8.0 17.7 0.00 0.00 0.00 39 1009.3
20260506231606 23 137 9.7 19.3 0.00 0.00 0.00 38 1009.5
20260506231106 24 128 8.0 16.1 0.00 0.00 0.00 38 1009.5
20260506230606 24 188 9.7 19.3 0.00 0.00 0.00 39 1009.4
20260506230106 24 159 9.7 24.1 0.00 0.00 0.00 38 1009.4
20260506225606 25 149 8.0 22.5 0.00 0.00 0.00 38 1009.3
20260506225106 24 140 6.4 14.5 0.00 0.00 0.00 37 1009.2
20260506224606 24 169 4.8 14.5 0.00 0.00 0.00 37 1009.2
20260506224106 24 121 8.0 14.5 0.00 0.00 0.00 38 1009.2
20260506223606 24 132 8.0 17.7 0.00 0.00 0.00 37 1009.2
20260506223106 25 123 6.4 20.9 0.00 0.00 0.00 37 1009.2
20260506222606 25 154 6.4 16.1 0.00 0.00 0.00 37 1009.2
20260506222107 25 134 6.4 16.1 0.00 0.00 0.00 37 1009.2
20260506221606 25 157 8.0 14.5 0.00 0.00 0.00 37 1009.2
20260506221106 24 155 6.4 12.9 0.00 0.00 0.00 37 1009.2
20260506220606 24 149 6.4 12.9 0.00 0.00 0.00 37 1009.1
20260506220106 24 157 8.0 17.7 0.00 0.00 0.00 37 1009.1
20260506215606 24 169 8.0 16.1 0.00 0.00 0.00 36 1009.1
20260506215106 25 118 4.8 14.5 0.00 0.00 0.00 36 1009.1
20260506214606 25 139 4.8 14.5 0.00 0.00 0.00 36 1009.2
20260506214106 25 136 6.4 14.5 0.00 0.00 0.00 36 1009.1
20260506213606 25 138 4.8 16.1 0.00 0.00 0.00 36 1009.3
20260506213106 25 145 3.2 12.9 0.00 0.00 0.00 36 1009.3
20260506212606 24 138 1.6 14.5 0.00 0.00 0.00 37 1009.3
20260506212106 24 148 3.2 3.2 0.00 0.00 0.00 37 1009.4
20260506211606 23 141 6.4 14.5 0.00 0.00 0.00 38 1009.4
20260506211106 24 116 4.8 17.7 0.00 0.00 0.00 38 1009.4
20260506210606 24 125 3.2 6.4 0.00 0.00 0.00 39 1009.5
20260506210106 23 153 4.8 12.9 0.00 0.00 0.00 39 1009.6
20260506205606 23 132 4.8 12.9 0.00 0.00 0.00 40 1009.6
20260506205106 23 171 4.8 11.3 0.00 0.00 0.00 40 1009.7
20260506204606 23 134 4.8 11.3 0.00 0.00 0.00 40 1009.8
20260506204106 23 160 3.2 17.7 0.00 0.00 0.00 40 1009.8
20260506203606 23 124 4.8 11.3 0.00 0.00 0.00 40 1009.8
20260506203106 23 161 6.4 12.9 0.00 0.00 0.00 42 1009.8
20260506202606 23 155 6.4 17.7 0.00 0.00 0.00 42 1009.9
20260506202106 22 173 6.4 14.5 0.00 0.00 0.00 42 1009.9
20260506201606 22 128 6.4 14.5 0.00 0.00 0.00 42 1009.8
20260506201106 22 157 8.0 12.9 0.00 0.00 0.00 42 1009.9
20260506200606 22 163 6.4 17.7 0.00 0.00 0.00 42 1009.9
20260506200106 22 118 6.4 11.3 0.00 0.00 0.00 42 1009.8
20260506195606 22 146 8.0 16.1 0.00 0.00 0.00 43 1010.0
20260506195106 22 153 6.4 16.1 0.00 0.00 0.00 43 1010.0
20260506194606 22 142 3.2 8.0 0.00 0.00 0.00 43 1010.1
20260506194106 22 119 3.2 6.4 0.00 0.00 0.00 44 1010.1
20260506193607 22 43 3.2 11.3 0.00 0.00 0.00 44 1010.4
20260506193107 22 149 3.2 12.9 0.00 0.00 0.00 44 1010.5
20260506192606 21 128 3.2 11.3 0.00 0.00 0.00 44 1010.6
20260506192107 21 108 3.2 12.9 0.00 0.00 0.00 45 1010.7
20260506191607 21 146 4.8 8.0 0.00 0.00 0.00 46 1010.6
20260506191107 21 128 6.4 14.5 0.00 0.00 0.00 47 1010.8
20260506190607 20 120 6.4 16.1 0.00 0.00 0.00 47 1010.7
20260506190107 20 134 4.8 16.1 0.00 0.00 0.00 48 1010.9
20260506185607 21 49 4.8 11.3 0.00 0.00 0.00 47 1011.0
20260506185107 20 125 3.2 12.9 0.00 0.00 0.00 48 1011.0
20260506184607 20 124 3.2 6.4 0.00 0.00 0.00 47 1011.2
20260506184107 20 117 3.2 9.7 0.00 0.00 0.00 48 1011.2
20260506183607 20 117 1.6 4.8 0.00 0.00 0.00 49 1011.2
20260506183107 19 119 3.2 6.4 0.00 0.00 0.00 50 1011.2
20260506182607 19 126 4.8 14.5 0.00 0.00 0.00 50 1011.2
20260506182107 18 126 6.4 12.9 0.00 0.00 0.00 51 1011.4
20260506181607 18 61 6.4 14.5 0.00 0.00 0.00 53 1011.4
20260506181107 18 59 4.8 8.0 0.00 0.00 0.00 52 1011.4
20260506180607 18 49 4.8 8.0 0.00 0.00 0.00 52 1011.4
20260506180107 18 125 6.4 16.1 0.00 0.00 0.00 51 1011.4
20260506175607 18 132 6.4 17.7 0.00 0.00 0.00 53 1011.4
20260506175107 18 134 6.4 17.7 0.00 0.00 0.00 53 1011.7
20260506174607 17 146 6.4 17.7 0.00 0.00 0.00 54 1011.8
20260506174107 17 115 6.4 19.3 0.00 0.00 0.00 54 1011.8
20260506173607 17 128 4.8 14.5 0.00 0.00 0.00 55 1011.7
20260506173107 17 148 4.8 12.9 0.00 0.00 0.00 56 1011.6
20260506172607 17 157 6.4 12.9 0.00 0.00 0.00 56 1011.7
20260506172107 16 134 8.0 20.9 0.00 0.00 0.00 56 1011.7
20260506171607 16 84 9.7 17.7 0.00 0.00 0.00 57 1011.7
20260506171107 16 128 9.7 16.1 0.00 0.00 0.00 58 1011.6
20260506170607 16 125 8.0 20.9 0.00 0.00 0.00 58 1011.5
20260506170107 16 130 4.8 12.9 0.00 0.00 0.00 59 1011.4
20260506165607 15 79 4.8 14.5 0.00 0.00 0.00 60 1011.4
20260506165107 15 95 4.8 11.3 0.00 0.00 0.00 62 1011.5
20260506164607 15 91 9.7 11.3 0.00 0.00 0.00 62 1011.8
20260506164107 14 66 11.3 22.5 0.00 0.00 0.00 62 1011.9
20260506163607 15 119 8.0 22.5 0.00 0.00 0.00 62 1012.0
20260506163107 15 130 6.4 20.9 0.00 0.00 0.00 63 1011.7
20260506162607 14 128 6.4 16.1 0.00 0.00 0.00 64 1011.8
20260506162107 14 173 6.4 16.1 0.00 0.00 0.00 64 1011.7
20260506161607 13 184 8.0 17.7 0.00 0.00 0.00 65 1011.6
20260506161107 13 130 8.0 25.7 0.00 0.00 0.00 65 1011.7
20260506160607 13 116 6.4 16.1 0.00 0.00 0.00 67 1011.7
20260506160107 13 121 6.4 19.3 0.00 0.00 0.00 69 1011.8
20260506155607 12 107 8.0 14.5 0.00 0.00 0.00 69 1011.6
20260506155107 12 114 8.0 22.5 0.00 0.00 0.00 71 1011.6
20260506154607 12 115 6.4 19.3 0.00 0.00 0.00 72 1011.6
20260506154107 11 118 6.4 22.5 0.00 0.00 0.00 72 1011.7
20260506153607 11 113 4.8 17.7 0.00 0.00 0.00 73 1011.7
20260506153107 11 121 6.4 17.7 0.00 0.00 0.00 74 1011.7
20260506152607 11 113 6.4 14.5 0.00 0.00 0.00 74 1011.6
20260506152107 11 113 4.8 12.9 0.00 0.00 0.00 74 1011.5
20260506151607 11 62 4.8 12.9 0.00 0.00 0.00 74 1011.6
20260506151107 11 79 4.8 8.0 0.00 0.00 0.00 74 1011.6
20260506150607 11 89 6.4 17.7 0.00 0.00 0.00 75 1011.8
20260506150107 11 107 8.0 16.1 0.00 0.00 0.00 75 1011.6
20260506145607 11 103 8.0 24.1 0.00 0.00 0.00 75 1011.5
20260506145107 11 125 6.4 12.9 0.00 0.00 0.00 75 1011.5
20260506144607 11 78 4.8 17.7 0.00 0.00 0.00 76 1011.4
20260506144107 10 127 4.8 8.0 0.00 0.00 0.00 76 1011.5
20260506143607 10 91 4.8 11.3 0.00 0.00 0.00 76 1011.4
20260506143109 10 93 6.4 11.3 0.00 0.00 0.00 76 1011.2
20260506142607 10 65 8.0 19.3 0.00 0.00 0.00 76 1011.2
20260506142107 10 107 8.0 24.1 0.00 0.00 0.00 76 1011.1
20260506141607 10 108 6.4 24.1 0.00 0.00 0.00 76 1011.1
20260506141107 10 107 6.4 12.9 0.00 0.00 0.00 77 1011.0
20260506140607 10 98 6.4 19.3 0.00 0.00 0.00 76 1010.9
20260506140107 10 82 4.8 16.1 0.00 0.00 0.00 76 1010.9
20260506135607 10 109 6.4 8.0 0.00 0.00 0.00 76 1010.9
20260506135107 10 133 6.4 16.1 0.00 0.00 0.00 76 1010.9
20260506134607 10 109 6.4 19.3 0.00 0.00 0.00 76 1010.9
20260506134107 10 137 6.4 17.7 0.00 0.00 0.00 76 1010.8
20260506133607 10 118 6.4 20.9 0.00 0.00 0.00 75 1010.9
20260506133107 10 117 8.0 14.5 0.00 0.00 0.00 75 1010.8
20260506132610 10 117 8.0 20.9 0.00 0.00 0.00 75 1010.2
20260506132109 10 178 6.4 24.1 0.00 0.00 0.00 75 1010.2
20260506131607 10 86 4.8 11.3 0.00 0.00 0.00 75 1010.2
20260506131107 10 95 4.8 11.3 0.00 0.00 0.00 75 1010.0
20260506130607 10 92 4.8 14.5 0.00 0.00 0.00 74 1010.0